Regional Weather Roundup
Issued by NWS Kansas City/Pleasant Hill, MO

Home | Current Version | Previous Version | Graphics & Text | Print | Product List | Glossary Off
Versions: 1 2 3 4 5 6 7 8 9 10 11 12 13 14 15 16 17 18 19 20 21 22 23 24 25 26 27 28 29 30 31 32 33 34 35 36 37 38 39 40 41 42 43 44 45 46 47 48 49 50

000
ASUS43 KEAX 262004
RWREAX

WEATHER ROUNDUP FOR EASTERN KANSAS AND NORTHWEST MISSOURI
NATIONAL WEATHER SERVICE KANSAS CITY/PLEASANT HILL MO
200 PM CST FRI DEC 26 2014

KSZ040-057-103>105-MOZ028-029-037-043-262100-
...KANSAS CITY METROPOLITAN AREA...

CITY           SKY/WX    TMP DP  RH WIND       PRES   REMARKS
K.C. INTL      CLOUDY    47  37  68 NW6       29.90S
K.C. DOWNTOWN  CLOUDY    54  42  64 W8        29.90S
LEES SUMMIT    CLOUDY    54  43  66 SW10      29.90F
OLATHE - IXD   CLOUDY    52  41  66 SW14      29.90F
OLATHE - OJC   CLOUDY    52  42  69 SW9       29.89S
LAWRENCE       CLOUDY    44  34  67 NW10      29.92S

$$

MOZ001>008-011>017-020>025-030>033-038>040-044>046-053-054-262100-
...NORTHERN AND CENTRAL MISSOURI...

CITY           SKY/WX    TMP DP  RH WIND       PRES   REMARKS
ST. JOSEPH     CLOUDY    38  33  82 NW5       29.95R WCI  34
MOSBY          CLOUDY    54  43  66 S7        29.90S
WARRENSBURG    CLOUDY    55  43  62 S10G17    29.91F
WHITEMAN AFB   NOT AVBL
CLINTON        CLOUDY    57  46  67 SW10      29.93S
SEDALIA        CLOUDY    58  44  60 SW17      29.94S
WARSAW         NOT AVBL
MARSHALL       MOSUNNY   59  46  63 SW12      29.94S
CHILLICOTHE      N/A     53  42  66 SW8       29.92F
MOBERLY        MOSUNNY   57  41  54 SW10      29.95F
KIRKSVILLE     MOSUNNY   53  41  63 SW10      29.92F

$$

MOZ041-047>049-056>058-063>065-088>090-097-262100-
...EASTERN AND SOUTHERN MISSOURI...

CITY           SKY/WX    TMP DP  RH WIND       PRES   REMARKS
ST. LOUIS INTL MOSUNNY   61  42  49 SW14      30.02F
SPIRIT OF STL  MOSUNNY   60  42  51 S8        30.00F
COLUMBIA       CLOUDY    60  45  57 S12       29.94F
JEFFERSON CITY PTSUNNY   61  44  53 S13G22    29.95F
MEXICO         MOSUNNY   61  48  63 SW14      29.95F
HANNIBAL       PTSUNNY   57  39  51 SW8       29.96S
ROLLA          CLOUDY    56  43  61 S16G23    29.97F
LEBANON        PTSUNNY   54  45  71 S17       29.98F
OSAGE BEACH    CLOUDY    57  43  58 S13G23    29.97R
SPRINGFIELD    CLOUDY    53  44  71 SE17      29.95F
BRANSON        CLOUDY    54  46  76 SE15G21   30.00F
NEVADA         CLOUDY    57  46  67 S16       29.92F
JOPLIN         CLOUDY    58  47  66 S14       29.91F
WEST PLAINS    CLOUDY    52  43  71 S10       30.05F

$$

IAZ060-094-KSZ022-034>040-054-083-096-NEZ052-066-093-262100-
...KANSAS...SOUTHEAST NEBRASKA AND IOWA...

CITY           SKY/WX    TMP DP  RH WIND       PRES   REMARKS
TOPEKA         CLOUDY    41  34  76 NW6       29.94S
MANHATTAN      CLOUDY    36  33  89 NE9       29.94F FOG     WCI  29
EMPORIA        CLOUDY    41  33  73 NW10      29.91S WCI  35
CHANUTE        CLOUDY    56  45  66 S12G22    29.89F
WICHITA        CLOUDY    39  32  76 N12       29.91F WCI  32
OMAHA          CLOUDY    34  30  85 N12       29.97R WCI  25
LINCOLN        CLOUDY    32  28  85 N14       29.98F WCI  22
FALLS CITY     CLOUDY    36  31  82 N7        29.95R WCI  30
LAMONI         CLOUDY    40  33  76 N8        29.91S WCI  34
DES MOINES     CLOUDY    35  31  85 N8        29.95S FOG     WCI  29

$$



USA.gov is the U.S. government's official web portal to all federal, state and local government web resources and services.